Location: Rooftop Observatory
(39.0308°N, 87.1711°W)
Time: 08:48:58
(UTC-05:00)

Daily predictions for brighter satellites

Satellite Brightness Start Highest point End
(mag) Time Altitude Azimuth Time Altitude Azimuth Time Altitude Azimuth
USA 215 3.7 18:51:59 10° ENE 18:58:11 44° SE 19:04:20 10° SSW
Aureole 2 Rocket 3.0 18:54:26 10° S 18:58:44 59° ESE 19:02:59 10° NNE
Cosmos 1812 Rocket 4.2 18:54:29 10° SSW 18:58:45 61° W 19:03:04 10° N
Cosmos 921 Rocket 4.4 18:56:44 10° NNW 19:00:43 42° W 19:04:39 10° S
Cosmos 1484 Rocket 2.7 18:57:02 10° SSE 19:00:51 80° ENE 19:04:45 10° N
SAR-Lupe-1 4.5 18:58:27 10° SE 19:01:49 41° ENE 19:05:12 10° N
SL-19 R/B 4.4 18:56:50 10° SSE 19:02:23 67° ENE 19:08:15 10° N
ASTRO E2 4.2 19:00:35 10° SW 19:04:01 27° S 19:07:28 10° ESE
CZ-4C R/B 3.4 19:01:38 10° WSW 19:06:42 43° NW 19:12:24 10° NNE
ALOS 3.8 19:05:44 10° ESE 19:08:49 18° ENE 19:11:53 10° NNE
Cosmos 2237 Rocket 3.4 19:04:02 10° SW 19:09:29 46° WNW 19:14:56 10° N
TIMED 4.5 19:05:20 10° NNW 19:09:43 82° ENE 19:14:05 10° SSE
Cosmos 2034 Rocket 4.5 19:04:30 10° SSE 19:10:10 38° E 19:15:54 10° NNE
BREEZE-M TANK 3.7 18:58:27 10° WNW 19:11:05 71° SW 19:14:40 10° SE
Cosmos 1464 Rocket 4.1 19:05:54 10° SSE 19:11:56 53° E 19:17:55 10° NNE
Helios 1B rocket 3.2 19:09:18 10° NE 19:12:55 29° E 19:16:30 10° SSE
ATLAS 5 CENTAUR R/B 2.0 19:08:38 10° SSW 19:13:11 49° ESE 19:18:05 10° NE
CZ-2C R/B 4.4 19:08:52 10° SSW 19:13:22 34° W 19:17:46 10° NNW
Meteor 1-29 4.3 19:10:41 10° NE 19:13:24 21° E 19:16:07 10° SSE
Atlas Centaur 2 4.1 19:07:07 10° W 19:14:50 38° SSW 19:22:12 10° SE
Cosmos 1076 Rocket 3.9 19:11:47 10° N 19:15:56 42° E 19:20:03 10° SSE
SeaSat 1 4.1 19:16:09 10° ENE 19:18:17 13° ESE 19:20:25 10° SE
Cosmos 1766 3.2 19:16:53 10° S 19:20:49 81° E 19:24:50 10° N
Cosmos-2242 3.7 19:17:06 10° SSE 19:20:56 31° E 19:24:50 10° NNE
BREEZE-M DEB (TANK) 4.4 19:20:42 10° WNW 19:24:14 58° SSW 19:35:39 10° SE
Cosmos 1452 Rocket 3.8 19:21:43 10° N 19:26:48 46° ENE 19:31:49 10° SE
SL-16 R/B 2.5 19:23:50 10° SSW 19:29:30 72° WNW 19:35:13 10° NNE
NOSS 3-2 (A) 3.6 19:23:41 10° SW 19:29:44 79° NW 19:36:20 10° NNE
FREGAT/IRIS 2.5 19:27:34 10° SSE 19:30:39 76° ENE 19:33:45 10° N
ATLAS CENTAUR R/B 3.0 19:29:44 10° NW 19:33:31 34° WSW 19:37:00 10° S
Cosmos 1408 Rocket 3.4 19:34:05 10° N 19:38:26 68° E 19:42:42 10° SSE
SL-8 R/B 4.1 19:34:26 10° SSW 19:38:56 43° SE 19:42:04 18° ENE
Cosmos 1544 3.6 19:37:53 10° SSE 19:41:20 37° E 19:44:49 10° NNE
METEOR-M 4.1 19:36:24 10° SSE 19:41:45 79° ENE 19:47:07 10° N
Gbstr 26 Del rocket 4.3 19:41:11 10° S 19:44:44 24° SE 19:45:51 22° ESE
Cosmos 1378 4.1 19:42:13 10° NNW 19:45:52 51° W 19:49:28 10° S
Cosmos 1953 2.2 19:42:25 10° S 19:46:23 72° E 19:50:22 10° NNE
Cosmos 1420 Rocket 4.5 19:43:53 10° N 19:48:53 41° ENE 19:52:00 21° SE
H-2A R/B 3.5 19:50:09 28° ESE 19:51:08 32° ENE 19:54:37 10° N
Cosmos 1805 3.1 19:47:14 10° S 19:51:10 82° E 19:55:07 10° N
Meteor 1-28 Rocket 4.4 19:48:47 10° N 19:52:20 43° WNW 19:55:51 10° SSW
FENGYUN 3A 3.8 19:47:54 10° SE 19:53:04 49° ENE 19:58:15 10° N
Resurs 1-3 3.5 19:50:16 10° SSE 19:54:38 72° ENE 19:59:01 10° N
Resurs 01 Rocket 1.6 19:51:03 10° SSE 19:55:30 85° WSW 19:59:59 10° NNW
ASTEX 1 3.6 19:54:11 10° NNE 19:58:55 47° E 20:03:37 10° SSE
Abrixas 2.5 19:57:01 10° SW 19:59:57 56° SE 20:00:02 55° SE
Cosmos 1346 3.0 19:58:33 10° N 20:01:22 56° ENE 20:01:22 56° ENE
CENTAUR R/B 2.8 19:58:41 10° S 20:04:09 39° ESE 20:10:11 10° NE
Spot 2 Rocket 3.7 19:59:09 10° S 20:04:10 71° WSW 20:09:14 10° NNW
Cosmos 1269 Rocket 3.9 19:59:44 10° S 20:04:57 67° ESE 20:10:12 10° NNE
Helios 1A 3.2 20:02:13 10° S 20:06:22 70° WSW 20:10:34 10° NNW
Cosmos 1743 Rocket 3.5 20:02:24 10° N 20:06:50 65° E 20:09:33 22° SSE
Cosmos 1048 Rocket 4.0 20:01:39 10° S 20:06:51 58° ESE 20:12:01 10° NNE
NOSS 3-2 (C) 4.2 20:02:14 10° SW 20:08:11 55° NW 20:14:41 10° NNE
Cosmos 1943 3.5 20:07:34 10° S 20:12:48 40° ESE 20:18:02 10° NE
Cosmos 2369 Rocket 2.9 20:08:21 10° N 20:13:29 34° ENE 20:14:17 33° ENE
Cosmos 1470 2.8 20:13:51 54° E 20:13:51 54° E 20:17:27 10° NNE
Envisat 4.4 20:16:19 21° NE 20:16:19 21° NE 20:19:07 10° NNE
Cosmos 1603 3.8 20:11:07 10° SSW 20:16:50 79° WNW 20:22:37 10° NNE
Cosmos 1943 Rocket 3.8 20:13:23 10° N 20:16:39 17° NE 20:16:39 17° NE
GPS 2-04 Rocket1 3.7 20:17:16 10° SW 20:19:40 29° SSW 20:19:40 29° SSW
Nadezhda 4 Rocket 3.9 20:15:16 10° N 20:21:35 89° WSW 20:27:47 10° S
GP-B 3.6 20:20:13 10° NNE 20:23:33 41° NE 20:23:33 41° NE
Cosmos 1092 Rocket 3.8 20:22:22 10° N 20:28:36 75° E 20:32:27 24° SSE
Cosmos 2142 Rocket 4.5 20:26:18 10° S 20:32:33 62° E 20:38:50 10° NNE
ISS -1.4 20:31:49 10° SW 20:33:16 24° SW 20:33:16 24° SW
Cosmos 1674 2.9 20:32:56 10° N 20:36:37 72° WNW 20:36:37 72° WNW
OAO 3 Rocket 3.6 20:36:08 10° W 20:40:37 50° SSW 20:40:37 50° SSW
USA 215 3.9 20:34:55 10° NE 20:41:13 53° NW 20:47:31 10° WSW
Cosmos 1634 Rocket 3.8 20:35:53 10° S 20:42:07 78° E 20:48:20 10° N
Cosmos 2026 Rocket 4.0 20:37:04 10° N 20:42:57 54° ENE 20:42:57 54° ENE
ALOS 3.2 20:42:33 17° SSW 20:45:52 45° W 20:50:22 10° NNW
ERS-1 Rocket 3.8 20:55:08 40° NNE 20:55:08 40° NNE 20:58:32 10° N
SeaSat 1 2.5 20:51:18 10° NNE 20:56:15 76° WNW 21:01:10 10° SSW
ATLAS 5 CENTAUR R/B 4.1 20:54:17 10° W 20:58:10 23° NW 21:02:19 10° N
Cosmos 2195 Rocket 4.4 20:58:27 10° N 21:04:49 88° W 21:05:32 72° S
Cosmos 839 Rocket 4.2 21:17:27 10° NNW 21:24:46 79° W 21:24:46 79° W
CENTAUR R/B 3.7 21:49:02 10° WSW 21:54:44 38° NW 22:01:08 10° NNE
Cosmos 2369 Rocket 3.9 21:52:26 10° NW 21:56:07 29° WNW 21:56:07 29° WNW
Cosmos 1943 Rocket 4.0 21:55:45 10° NNW 21:58:11 27° NNW 21:58:11 27° NNW
